| time (UTC) | temp C | wind direction | speed KPH | gust KPH | rain 1hr cm | rain 24hr cm | rain mn cm | humidity % | barometer mb |
| 20260504040017 | 11 | 138 | 4.8 | 12.9 | 0.00 | 0.00 | 0.00 | 74 | 1018.1 |
| 20260504034514 | 11 | 172 | 4.8 | 12.9 | 0.00 | 0.00 | 0.00 | 72 | 1018.0 |
| 20260504033008 | 11 | 131 | 4.8 | 11.3 | 0.00 | 0.00 | 0.00 | 70 | 1017.9 |
| 20260504031505 | 11 | 147 | 4.8 | 12.9 | 0.00 | 0.00 | 0.00 | 69 | 1017.8 |
| 20260504030004 | 11 | 140 | 4.8 | 12.9 | 0.00 | 0.00 | 0.00 | 68 | 1017.9 |
| 20260504024502 | 11 | 144 | 1.6 | 17.7 | 0.00 | 0.00 | 0.00 | 67 | 1018.0 |
| 20260504023002 | 11 | 144 | 3.2 | 12.9 | 0.00 | 0.00 | 0.00 | 66 | 1017.9 |
| 20260504021600 | 11 | 160 | 3.2 | 11.3 | 0.00 | 0.00 | 0.00 | 65 | 1017.9 |
| 20260504020041 | 11 | 167 | 3.2 | 12.9 | 0.00 | 0.00 | 0.00 | 65 | 1017.8 |
| 20260504014536 | 11 | 140 | 4.8 | 9.7 | 0.00 | 0.00 | 0.00 | 65 | 1017.7 |
| 20260504013037 | 10 | 291 | 0.0 | 6.4 | 0.00 | 0.00 | 0.00 | 70 | 1017.5 |
| 20260504011534 | 10 | 291 | 0.0 | 0.0 | 0.00 | 0.00 | 0.00 | 67 | 1017.1 |
| 20260504010032 | 11 | 291 | 0.0 | 0.0 | 0.00 | 0.00 | 0.00 | 64 | 1017.0 |
| 20260504004536 | 11 | 291 | 0.0 | 3.2 | 0.00 | 0.00 | 0.00 | 64 | 1016.8 |
| 20260504003040 | 12 | 291 | 0.0 | 0.0 | 0.00 | 0.00 | 0.00 | 58 | 1016.5 |
| 20260504001538 | 13 | 291 | 0.0 | 0.0 | 0.00 | 0.00 | 0.00 | 52 | 1016.3 |
| 20260504000052 | 14 | 291 | 0.0 | 0.0 | 0.00 | 0.00 | 0.00 | 47 | 1016.1 |
| 20260503234530 | 15 | 291 | 0.0 | 3.2 | 0.00 | 0.00 | 0.00 | 43 | 1016.0 |
| 20260503233031 | 16 | 291 | 1.6 | 8.0 | 0.00 | 0.00 | 0.00 | 39 | 1015.9 |
| 20260503231529 | 17 | 291 | 3.2 | 9.7 | 0.00 | 0.00 | 0.00 | 34 | 1015.8 |
| 20260503230028 | 17 | 301 | 3.2 | 9.7 | 0.00 | 0.00 | 0.00 | 34 | 1015.8 |
| 20260503224529 | 17 | 296 | 6.4 | 14.5 | 0.00 | 0.00 | 0.00 | 35 | 1015.8 |
| 20260503223036 | 17 | 300 | 8.0 | 14.5 | 0.00 | 0.00 | 0.00 | 33 | 1015.9 |
| 20260503221528 | 18 | 293 | 6.4 | 11.3 | 0.00 | 0.00 | 0.00 | 35 | 1015.9 |
| 20260503220025 | 18 | 281 | 4.8 | 11.3 | 0.00 | 0.00 | 0.00 | 32 | 1015.8 |
| 20260503214524 | 18 | 277 | 9.7 | 16.1 | 0.00 | 0.00 | 0.00 | 33 | 1015.8 |
| 20260503213022 | 18 | 283 | 6.4 | 16.1 | 0.00 | 0.00 | 0.00 | 32 | 1015.8 |
| 20260503211520 | 18 | 190 | 11.3 | 20.9 | 0.00 | 0.00 | 0.00 | 34 | 1015.9 |
| 20260503210018 | 17 | 248 | 9.7 | 19.3 | 0.00 | 0.00 | 0.00 | 31 | 1015.8 |
| 20260503204518 | 18 | 313 | 12.9 | 24.1 | 0.00 | 0.00 | 0.00 | 31 | 1015.7 |
| 20260503203025 | 18 | 286 | 6.4 | 19.3 | 0.00 | 0.00 | 0.00 | 34 | 1015.8 |
| 20260503201517 | 17 | 302 | 11.3 | 24.1 | 0.00 | 0.00 | 0.00 | 32 | 1015.9 |
| 20260503200016 | 17 | 267 | 9.7 | 19.3 | 0.00 | 0.00 | 0.00 | 32 | 1016.1 |
| 20260503194515 | 17 | 302 | 12.9 | 24.1 | 0.00 | 0.00 | 0.00 | 35 | 1016.3 |
| 20260503193017 | 17 | 322 | 12.9 | 24.1 | 0.00 | 0.00 | 0.00 | 33 | 1016.3 |
| 20260503191510 | 17 | 300 | 11.3 | 22.5 | 0.00 | 0.00 | 0.00 | 33 | 1016.7 |
| 20260503190012 | 17 | 298 | 14.5 | 29.0 | 0.00 | 0.00 | 0.00 | 35 | 1016.7 |
| 20260503184508 | 17 | 331 | 11.3 | 19.3 | 0.00 | 0.00 | 0.00 | 37 | 1017.0 |
| 20260503183005 | 16 | 323 | 11.3 | 22.5 | 0.00 | 0.00 | 0.00 | 38 | 1017.0 |
| 20260503181505 | 16 | 342 | 14.5 | 22.5 | 0.00 | 0.00 | 0.00 | 38 | 1016.9 |
| 20260503174523 | 16 | 306 | 16.1 | 30.6 | 0.00 | 0.00 | 0.00 | 41 | 1017.2 |
| 20260503173050 | 16 | 293 | 12.9 | 24.1 | 0.00 | 0.00 | 0.00 | 41 | 1017.3 |
| 20260503171642 | 15 | 290 | 14.5 | 33.8 | 0.00 | 0.00 | 0.00 | 40 | 1017.4 |
| 20260503170107 | 15 | 292 | 12.9 | 24.1 | 0.00 | 0.00 | 0.00 | 40 | 1017.5 |
| 20260503081528 | 11 | 12 | 8.0 | 16.1 | 0.00 | 0.03 | 0.00 | 64 | 1013.4 |
| 20260503071518 | 11 | 294 | 6.4 | 14.5 | 0.00 | 0.03 | 0.00 | 64 | 1012.8 |
| 20260503054509 | 11 | 299 | 6.4 | 11.3 | 0.00 | 0.03 | 0.00 | 68 | 1012.2 |
| 20260503053006 | 11 | 303 | 3.2 | 6.4 | 0.00 | 0.03 | 0.00 | 66 | 1012.4 |
| 20260503051601 | 11 | 303 | 0.0 | 6.4 | 0.00 | 0.03 | 0.00 | 65 | 1012.4 |
| 20260503050058 | 12 | 305 | 3.2 | 8.0 | 0.00 | 0.03 | 0.00 | 63 | 1012.4 |
| 20260503044534 | 12 | 306 | 6.4 | 9.7 | 0.00 | 0.03 | 0.00 | 63 | 1012.4 |
| 20260503043112 | 12 | 297 | 4.8 | 9.7 | 0.00 | 0.03 | 0.00 | 63 | 1012.5 |
| 20260503041556 | 12 | 295 | 4.8 | 9.7 | 0.00 | 0.03 | 0.00 | 63 | 1012.5 |